owner,sensor,date,latitude,longitude,vertical_datum,direction_of_sea_water_velocity,sea_water_speed,upward_sea_water_velocity,qcFlag 
TABS,ioos:station:wmo:42045:1,2004-03-01T00:00:00Z,26.2168,-96.4998,2.0,122.5191726,17.374064,-99999.0,'11111222,11111222,99999999' 
TABS,ioos:station:wmo:42045:1,2004-03-01T00:30:00Z,26.2168,-96.4998,2.0,119.5711891,30.69873776,-99999.0,'11111222,11111222,99999999' 
TABS,ioos:station:wmo:42045:1,2004-03-01T01:00:00Z,26.2168,-96.4998,2.0,133.4097692,33.38122376,-99999.0,'11111222,11111222,99999999' 
TABS,ioos:station:wmo:42045:1,2004-03-01T01:30:00Z,26.2168,-96.4998,2.0,144.641129,36.47868693,-99999.0,'11111222,11111222,99999999' 
TABS,ioos:station:wmo:42045:1,2004-03-01T02:00:00Z,26.2168,-96.4998,2.0,155.7373752,43.63408415,-99999.0,'11111222,11111222,99999999' 
TABS,ioos:station:wmo:42045:1,2004-03-01T02:30:00Z,26.2168,-96.4998,2.0,165.9281693,47.09315131,-99999.0,'11111222,11111222,99999999' 
TABS,ioos:station:wmo:42045:1,2004-03-01T03:00:00Z,26.2168,-96.4998,2.0,172.7977526,42.43480176,-99999.0,'11111222,11111222,99999999' 
TABS,ioos:station:wmo:42045:1,2004-03-01T04:00:00Z,26.2168,-96.4998,2.0,186.17784,35.1239918,-99999.0,'11111222,11111222,99999999' 
TABS,ioos:station:wmo:42045:1,2004-03-01T04:30:00Z,26.2168,-96.4998,2.0,201.9247105,28.41516672,-99999.0,'11111222,11111222,99999999' 
TABS,ioos:station:wmo:42045:1,2004-03-01T05:00:00Z,26.2168,-96.4998,2.0,205.2332654,25.40411974,-99999.0,'11111222,11111222,99999999' 
TABS,ioos:station:wmo:42045:1,2004-03-01T05:30:00Z,26.2168,-96.4998,2.0,209.5099767,22.71715211,-99999.0,'11111222,11111222,99999999' 
TABS,ioos:station:wmo:42045:1,2004-03-01T06:00:00Z,26.2168,-96.4998,2.0,222.3837361,20.60535125,-99999.0,'11111222,11111222,99999999' 
TABS,ioos:station:wmo:42045:1,2004-03-01T06:30:00Z,26.2168,-96.4998,2.0,233.0072172,17.76604064,-99999.0,'11111222,11111222,99999999' 
TABS,ioos:station:wmo:42045:1,2004-03-01T07:00:00Z,26.2168,-96.4998,2.0,234.6659374,17.30822059,-99999.0,'11111222,11111222,99999999' 
TABS,ioos:station:wmo:42045:1,2004-03-01T07:30:00Z,26.2168,-96.4998,2.0,249.1216997,15.20856666,-99999.0,'11111222,11111222,99999999' 
TABS,ioos:station:wmo:42045:1,2004-03-01T08:00:00Z,26.2168,-96.4998,2.0,259.4711378,14.66692879,-99999.0,'11111222,11111222,99999999' 
TABS,ioos:station:wmo:42045:1,2004-03-01T08:30:00Z,26.2168,-96.4998,2.0,261.8046083,12.48751376,-99999.0,'11111222,11111222,99999999' 
TABS,ioos:station:wmo:42045:1,2004-03-01T09:00:00Z,26.2168,-96.4998,2.0,285.677805,13.80351405,-99999.0,'11111222,11111222,99999999' 
TABS,ioos:station:wmo:42045:1,2004-03-01T09:30:00Z,26.2168,-96.4998,2.0,294.4152098,14.66104021,-99999.0,'11111222,11111222,99999999' 
TABS,ioos:station:wmo:42045:1,2004-03-01T10:00:00Z,26.2168,-96.4998,2.0,311.0608604,14.61507441,-99999.0,'11111222,11111222,99999999' 
TABS,ioos:station:wmo:42045:1,2004-03-01T10:30:00Z,26.2168,-96.4998,2.0,328.0506134,17.44227336,-99999.0,'11111222,11111222,99999999' 
TABS,ioos:station:wmo:42045:1,2004-03-01T11:00:00Z,26.2168,-96.4998,2.0,335.5814805,16.95681869,-99999.0,'11111222,11111222,99999999' 
TABS,ioos:station:wmo:42045:1,2004-03-01T11:30:00Z,26.2168,-96.4998,2.0,349.5376579,19.4941145,-99999.0,'11111222,11111222,99999999' 
TABS,ioos:station:wmo:42045:1,2004-03-01T12:00:00Z,26.2168,-96.4998,2.0,354.6830044,19.85544006,-99999.0,'11111222,11111222,99999999' 
TABS,ioos:station:wmo:42045:1,2004-03-01T12:30:00Z,26.2168,-96.4998,2.0,0.171582766,10.03004487,-99999.0,'11111222,11111222,99999999' 
TABS,ioos:station:wmo:42045:1,2004-03-01T13:00:00Z,26.2168,-96.4998,2.0,9.370128089,15.29405767,-99999.0,'11111222,11111222,99999999' 
TABS,ioos:station:wmo:42045:1,2004-03-01T13:30:00Z,26.2168,-96.4998,2.0,8.33949089,13.16924447,-99999.0,'11111222,11111222,99999999' 
TABS,ioos:station:wmo:42045:1,2004-03-01T14:00:00Z,26.2168,-96.4998,2.0,14.35009171,22.15111058,-99999.0,'11111222,11111222,99999999' 
TABS,ioos:station:wmo:42045:1,2004-03-01T14:30:00Z,26.2168,-96.4998,2.0,31.0006566,24.05611149,-99999.0,'11111222,11111222,99999999' 
TABS,ioos:station:wmo:42045:1,2004-03-01T15:00:00Z,26.2168,-96.4998,2.0,37.08794042,19.98214453,-99999.0,'11111222,11111222,99999999' 
TABS,ioos:station:wmo:42045:1,2004-03-01T16:00:00Z,26.2168,-96.4998,2.0,47.95708169,28.23701471,-99999.0,'11111222,11111222,99999999' 
TABS,ioos:station:wmo:42045:1,2004-03-01T16:30:00Z,26.2168,-96.4998,2.0,62.73228574,24.79538667,-99999.0,'11111222,11111222,99999999' 
TABS,ioos:station:wmo:42045:1,2004-03-01T17:00:00Z,26.2168,-96.4998,2.0,69.87312515,24.84736203,-99999.0,'11111222,11111222,99999999' 
TABS,ioos:station:wmo:42045:1,2004-03-01T17:30:00Z,26.2168,-96.4998,2.0,74.67162549,21.94050136,-99999.0,'11111222,11111222,99999999' 
TABS,ioos:station:wmo:42045:1,2004-03-01T18:00:00Z,26.2168,-96.4998,2.0,93.08933384,19.66858409,-99999.0,'11111222,11111222,99999999' 
TABS,ioos:station:wmo:42045:1,2004-03-01T19:00:00Z,26.2168,-96.4998,2.0,127.971515,39.52730702,-99999.0,'11111222,11111222,99999999' 
TABS,ioos:station:wmo:42045:1,2004-03-01T19:30:00Z,26.2168,-96.4998,2.0,127.7253532,38.30827065,-99999.0,'11111222,11111222,99999999' 
TABS,ioos:station:wmo:42045:1,2004-03-01T20:00:00Z,26.2168,-96.4998,2.0,135.7121361,42.66304841,-99999.0,'11111222,11111222,99999999' 
TABS,ioos:station:wmo:42045:1,2004-03-01T20:30:00Z,26.2168,-96.4998,2.0,143.8021323,42.2809094,-99999.0,'11111222,11111222,99999999' 
TABS,ioos:station:wmo:42045:1,2004-03-01T21:00:00Z,26.2168,-96.4998,2.0,148.8075538,38.69381863,-99999.0,'11111222,11111222,99999999' 
TABS,ioos:station:wmo:42045:1,2004-03-01T22:00:00Z,26.2168,-96.4998,2.0,157.6810287,35.57510647,-99999.0,'11111222,11111222,99999999' 
TABS,ioos:station:wmo:42045:1,2004-03-01T22:30:00Z,26.2168,-96.4998,2.0,164.5314008,40.75629154,-99999.0,'11111222,11111222,99999999' 
TABS,ioos:station:wmo:42045:1,2004-03-01T23:00:00Z,26.2168,-96.4998,2.0,171.185364,31.25917785,-99999.0,'11111222,11111222,99999999' 
TABS,ioos:station:wmo:42045:1,2004-03-01T23:30:00Z,26.2168,-96.4998,2.0,174.381591,29.62229566,-99999.0,'11111222,11111222,99999999' 
TABS,ioos:station:wmo:42045:1,2004-03-02T00:00:00Z,26.2168,-96.4998,2.0,173.8431792,30.67693107,-99999.0,'11111222,11111222,99999999' 
TABS,ioos:station:wmo:42045:1,2004-03-02T00:30:00Z,26.2168,-96.4998,2.0,175.1679757,28.61167943,-99999.0,'11111222,11111222,99999999' 
TABS,ioos:station:wmo:42045:1,2004-03-02T01:00:00Z,26.2168,-96.4998,2.0,184.2187069,27.86550915,-99999.0,'11111222,11111222,99999999' 
TABS,ioos:station:wmo:42045:1,2004-03-02T01:30:00Z,26.2168,-96.4998,2.0,186.5030607,25.60475737,-99999.0,'11111222,11111222,99999999' 
TABS,ioos:station:wmo:42045:1,2004-03-02T02:00:00Z,26.2168,-96.4998,2.0,181.3868812,23.54690001,-99999.0,'11111222,11111222,99999999' 
TABS,ioos:station:wmo:42045:1,2004-03-02T02:30:00Z,26.2168,-96.4998,2.0,194.0620129,26.71045114,-99999.0,'11111222,11111222,99999999' 
TABS,ioos:station:wmo:42045:1,2004-03-02T03:00:00Z,26.2168,-96.4998,2.0,193.4562349,21.57222288,-99999.0,'11111222,11111222,99999999' 
TABS,ioos:station:wmo:42045:1,2004-03-02T03:30:00Z,26.2168,-96.4998,2.0,197.4512838,28.74301306,-99999.0,'11111222,11111222,99999999' 
TABS,ioos:station:wmo:42045:1,2004-03-02T04:00:00Z,26.2168,-96.4998,2.0,207.9151475,27.89598717,-99999.0,'11111222,11111222,99999999' 
TABS,ioos:station:wmo:42045:1,2004-03-02T04:30:00Z,26.2168,-96.4998,2.0,214.5354507,28.18738725,-99999.0,'11111222,11111222,99999999' 
TABS,ioos:station:wmo:42045:1,2004-03-02T05:00:00Z,26.2168,-96.4998,2.0,213.1320874,26.7849678,-99999.0,'11111222,11111222,99999999' 
TABS,ioos:station:wmo:42045:1,2004-03-02T05:30:00Z,26.2168,-96.4998,2.0,215.2334388,23.88573842,-99999.0,'11111222,11111222,99999999' 
TABS,ioos:station:wmo:42045:1,2004-03-02T06:00:00Z,26.2168,-96.4998,2.0,230.935248,24.54800399,-99999.0,'11111222,11111222,99999999' 
TABS,ioos:station:wmo:42045:1,2004-03-02T06:30:00Z,26.2168,-96.4998,2.0,236.1505834,20.98716274,-99999.0,'11111222,11111222,99999999' 
TABS,ioos:station:wmo:42045:1,2004-03-02T07:00:00Z,26.2168,-96.4998,2.0,263.1118089,16.17674875,-99999.0,'11111222,11111222,99999999' 
TABS,ioos:station:wmo:42045:1,2004-03-02T07:30:00Z,26.2168,-96.4998,2.0,285.187412,13.28393014,-99999.0,'11111222,11111222,99999999' 
TABS,ioos:station:wmo:42045:1,2004-03-02T08:00:00Z,26.2168,-96.4998,2.0,306.2497261,13.85081225,-99999.0,'11111222,11111222,99999999' 
TABS,ioos:station:wmo:42045:1,2004-03-02T08:30:00Z,26.2168,-96.4998,2.0,327.5321108,14.56696605,-99999.0,'11111222,11111222,99999999' 
TABS,ioos:station:wmo:42045:1,2004-03-02T09:00:00Z,26.2168,-96.4998,2.0,344.3827564,12.48078523,-99999.0,'11111222,11111222,99999999' 
TABS,ioos:station:wmo:42045:1,2004-03-02T09:30:00Z,26.2168,-96.4998,2.0,351.6487844,15.00916054,-99999.0,'11111222,11111222,99999999' 
TABS,ioos:station:wmo:42045:1,2004-03-02T10:00:00Z,26.2168,-96.4998,2.0,6.881201533,13.68859744,-99999.0,'11111222,11111222,99999999' 
TABS,ioos:station:wmo:42045:1,2004-03-02T10:30:00Z,26.2168,-96.4998,2.0,20.71912353,13.17186395,-99999.0,'11111222,11111222,99999999' 
TABS,ioos:station:wmo:42045:1,2004-03-02T11:00:00Z,26.2168,-96.4998,2.0,20.94178543,12.87013597,-99999.0,'11111222,11111222,99999999' 
TABS,ioos:station:wmo:42045:1,2004-03-02T11:30:00Z,26.2168,-96.4998,2.0,43.16179487,11.2417125,-99999.0,'11111222,11111222,99999999' 
TABS,ioos:station:wmo:42045:1,2004-03-02T12:00:00Z,26.2168,-96.4998,2.0,47.0902595,15.51009994,-99999.0,'11111222,11111222,99999999' 
TABS,ioos:station:wmo:42045:1,2004-03-02T12:30:00Z,26.2168,-96.4998,2.0,63.39052676,11.52022569,-99999.0,'11111222,11111222,99999999' 
TABS,ioos:station:wmo:42045:1,2004-03-02T13:00:00Z,26.2168,-96.4998,2.0,55.84038533,9.812976103,-99999.0,'11133222,11111222,99999999' 
TABS,ioos:station:wmo:42045:1,2004-03-02T13:30:00Z,26.2168,-96.4998,2.0,63.5376912,12.47727935,-99999.0,'11111222,11111222,99999999' 
TABS,ioos:station:wmo:42045:1,2004-03-02T14:00:00Z,26.2168,-96.4998,2.0,58.58892584,10.32281454,-99999.0,'11111222,11111222,99999999' 
TABS,ioos:station:wmo:42045:1,2004-03-02T14:30:00Z,26.2168,-96.4998,2.0,62.90573597,9.682587464,-99999.0,'11133222,11111222,99999999' 
TABS,ioos:station:wmo:42045:1,2004-03-02T15:00:00Z,26.2168,-96.4998,2.0,72.11980658,11.43216952,-99999.0,'11111222,11111222,99999999' 
TABS,ioos:station:wmo:42045:1,2004-03-02T16:00:00Z,26.2168,-96.4998,2.0,76.92556527,9.680960696,-99999.0,'11133222,11111222,99999999' 
TABS,ioos:station:wmo:42045:1,2004-03-02T16:30:00Z,26.2168,-96.4998,2.0,78.33263915,8.801863439,-99999.0,'11133222,11111222,99999999' 
TABS,ioos:station:wmo:42045:1,2004-03-02T17:00:00Z,26.2168,-96.4998,2.0,54.83754869,30.00532119,-99999.0,'11111222,11111222,99999999' 
TABS,ioos:station:wmo:42045:1,2004-03-02T17:30:00Z,26.2168,-96.4998,2.0,69.76295305,20.81492013,-99999.0,'11111222,11111222,99999999' 
TABS,ioos:station:wmo:42045:1,2004-03-02T18:00:00Z,26.2168,-96.4998,2.0,76.59578324,24.84686097,-99999.0,'11111222,11111222,99999999' 
TABS,ioos:station:wmo:42045:1,2004-03-02T19:00:00Z,26.2168,-96.4998,2.0,85.60342362,20.74103421,-99999.0,'11111222,11111222,99999999' 
TABS,ioos:station:wmo:42045:1,2004-03-02T19:30:00Z,26.2168,-96.4998,2.0,86.27013729,16.29451441,-99999.0,'11111222,11111222,99999999' 
TABS,ioos:station:wmo:42045:1,2004-03-02T20:00:00Z,26.2168,-96.4998,2.0,99.37838634,26.94009094,-99999.0,'11111222,11111222,99999999' 
TABS,ioos:station:wmo:42045:1,2004-03-02T20:30:00Z,26.2168,-96.4998,2.0,119.0151306,22.59599965,-99999.0,'11111222,11111222,99999999' 
TABS,ioos:station:wmo:42045:1,2004-03-02T21:00:00Z,26.2168,-96.4998,2.0,124.4195397,20.91111905,-99999.0,'11111222,11111222,99999999' 
TABS,ioos:station:wmo:42045:1,2004-03-02T22:00:00Z,26.2168,-96.4998,2.0,134.8621651,23.53258167,-99999.0,'11111222,11111222,99999999' 
TABS,ioos:station:wmo:42045:1,2004-03-02T22:30:00Z,26.2168,-96.4998,2.0,138.7806119,22.62716288,-99999.0,'11111222,11111222,99999999' 
TABS,ioos:station:wmo:42045:1,2004-03-02T23:00:00Z,26.2168,-96.4998,2.0,144.8945922,17.40625462,-99999.0,'11111222,11111222,99999999' 
TABS,ioos:station:wmo:42045:1,2004-03-02T23:30:00Z,26.2168,-96.4998,2.0,148.5239438,21.68000231,-99999.0,'11111222,11111222,99999999' 
TABS,ioos:station:wmo:42045:1,2004-03-03T00:00:00Z,26.2168,-96.4998,2.0,149.1049628,15.69727683,-99999.0,'11111222,11111222,99999999' 
TABS,ioos:station:wmo:42045:1,2004-03-03T00:30:00Z,26.2168,-96.4998,2.0,160.5718719,18.42935973,-99999.0,'11111222,11111222,99999999' 
TABS,ioos:station:wmo:42045:1,2004-03-03T01:00:00Z,26.2168,-96.4998,2.0,156.338156,12.18432189,-99999.0,'11111222,11111222,99999999' 
TABS,ioos:station:wmo:42045:1,2004-03-03T01:30:00Z,26.2168,-96.4998,2.0,162.6732601,16.18440299,-99999.0,'11111222,11111222,99999999' 
TABS,ioos:station:wmo:42045:1,2004-03-03T02:00:00Z,26.2168,-96.4998,2.0,155.8632944,14.03722551,-99999.0,'11111222,11111222,99999999' 
TABS,ioos:station:wmo:42045:1,2004-03-03T02:30:00Z,26.2168,-96.4998,2.0,194.1649353,8.622163302,-99999.0,'11133222,11111222,99999999' 
TABS,ioos:station:wmo:42045:1,2004-03-03T03:00:00Z,26.2168,-96.4998,2.0,244.9019944,4.715177621,-99999.0,'11133222,11111222,99999999' 
TABS,ioos:station:wmo:42045:1,2004-03-03T03:30:00Z,26.2168,-96.4998,2.0,263.7440695,5.231147102,-99999.0,'11133222,11111222,99999999' 
TABS,ioos:station:wmo:42045:1,2004-03-03T04:00:00Z,26.2168,-96.4998,2.0,292.8683693,7.282375986,-99999.0,'11133222,11111222,99999999' 
TABS,ioos:station:wmo:42045:1,2004-03-03T04:30:00Z,26.2168,-96.4998,2.0,298.264359,10.55888252,-99999.0,'11111222,11111222,99999999' 
TABS,ioos:station:wmo:42045:1,2004-03-03T05:00:00Z,26.2168,-96.4998,2.0,319.2257198,13.62763369,-99999.0,'11111222,11111222,99999999' 
TABS,ioos:station:wmo:42045:1,2004-03-03T05:30:00Z,26.2168,-96.4998,2.0,343.3534098,12.56668612,-99999.0,'11111222,11111222,99999999' 
TABS,ioos:station:wmo:42045:1,2004-03-03T06:00:00Z,26.2168,-96.4998,2.0,335.0835621,12.43768467,-99999.0,'11111222,11111222,99999999' 
TABS,ioos:station:wmo:42045:1,2004-03-03T06:30:00Z,26.2168,-96.4998,2.0,329.7409735,14.3675224,-99999.0,'11111222,11111222,99999999' 
TABS,ioos:station:wmo:42045:1,2004-03-03T07:00:00Z,26.2168,-96.4998,2.0,339.5304901,17.09973099,-99999.0,'11111222,11111222,99999999' 
TABS,ioos:station:wmo:42045:1,2004-03-03T07:30:00Z,26.2168,-96.4998,2.0,340.4314202,16.77916863,-99999.0,'11111222,11111222,99999999' 
TABS,ioos:station:wmo:42045:1,2004-03-03T08:00:00Z,26.2168,-96.4998,2.0,343.0315325,14.45950552,-99999.0,'11111222,11111222,99999999' 
TABS,ioos:station:wmo:42045:1,2004-03-03T08:30:00Z,26.2168,-96.4998,2.0,348.9699637,19.28629047,-99999.0,'11111222,11111222,99999999' 
TABS,ioos:station:wmo:42045:1,2004-03-03T09:00:00Z,26.2168,-96.4998,2.0,7.271274135,18.48867762,-99999.0,'11111222,11111222,99999999' 
TABS,ioos:station:wmo:42045:1,2004-03-03T09:30:00Z,26.2168,-96.4998,2.0,16.38783926,17.26124271,-99999.0,'11111222,11111222,99999999' 
TABS,ioos:station:wmo:42045:1,2004-03-03T10:00:00Z,26.2168,-96.4998,2.0,32.30120348,17.04817292,-99999.0,'11111222,11111222,99999999' 
TABS,ioos:station:wmo:42045:1,2004-03-03T10:30:00Z,26.2168,-96.4998,2.0,41.72786477,19.69675354,-99999.0,'11111222,11111222,99999999' 
TABS,ioos:station:wmo:42045:1,2004-03-03T11:00:00Z,26.2168,-96.4998,2.0,47.97570597,25.19990675,-99999.0,'11111222,11111222,99999999' 
TABS,ioos:station:wmo:42045:1,2004-03-03T11:30:00Z,26.2168,-96.4998,2.0,50.34356965,27.5625924,-99999.0,'11111222,11111222,99999999' 
TABS,ioos:station:wmo:42045:1,2004-03-03T12:00:00Z,26.2168,-96.4998,2.0,55.01764417,29.38994556,-99999.0,'11111222,11111222,99999999' 
TABS,ioos:station:wmo:42045:1,2004-03-03T12:30:00Z,26.2168,-96.4998,2.0,58.45591674,27.25766865,-99999.0,'11111222,11111222,99999999' 
TABS,ioos:station:wmo:42045:1,2004-03-03T13:00:00Z,26.2168,-96.4998,2.0,68.57504407,23.46125529,-99999.0,'11111222,11111222,99999999' 
TABS,ioos:station:wmo:42045:1,2004-03-03T13:30:00Z,26.2168,-96.4998,2.0,57.08527714,26.64746329,-99999.0,'11111222,11111222,99999999' 
TABS,ioos:station:wmo:42045:1,2004-03-03T14:00:00Z,26.2168,-96.4998,2.0,69.35664911,23.79800412,-99999.0,'11111222,11111222,99999999' 
TABS,ioos:station:wmo:42045:1,2004-03-03T14:30:00Z,26.2168,-96.4998,2.0,63.17787562,27.90193721,-99999.0,'11111222,11111222,99999999' 
TABS,ioos:station:wmo:42045:1,2004-03-03T15:00:00Z,26.2168,-96.4998,2.0,72.25205951,26.37529147,-99999.0,'11111222,11111222,99999999' 
TABS,ioos:station:wmo:42045:1,2004-03-03T15:30:00Z,26.2168,-96.4998,2.0,81.2051236,26.81529414,-99999.0,'11111222,11111222,99999999' 
TABS,ioos:station:wmo:42045:1,2004-03-03T16:00:00Z,26.2168,-96.4998,2.0,87.19729413,30.67669474,-99999.0,'11111222,11111222,99999999' 
TABS,ioos:station:wmo:42045:1,2004-03-03T16:30:00Z,26.2168,-96.4998,2.0,95.56670026,25.35959779,-99999.0,'11111222,11111222,99999999' 
TABS,ioos:station:wmo:42045:1,2004-03-03T17:00:00Z,26.2168,-96.4998,2.0,102.5969244,24.62270903,-99999.0,'11111222,11111222,99999999' 
TABS,ioos:station:wmo:42045:1,2004-03-03T17:30:00Z,26.2168,-96.4998,2.0,107.6894897,27.71022194,-99999.0,'11111222,11111222,99999999' 
TABS,ioos:station:wmo:42045:1,2004-03-03T18:00:00Z,26.2168,-96.4998,2.0,110.6759496,25.71633722,-99999.0,'11111222,11111222,99999999' 
TABS,ioos:station:wmo:42045:1,2004-03-03T18:30:00Z,26.2168,-96.4998,2.0,127.8698832,20.05305463,-99999.0,'11111222,11111222,99999999' 
TABS,ioos:station:wmo:42045:1,2004-03-03T19:00:00Z,26.2168,-96.4998,2.0,124.4218513,24.53639134,-99999.0,'11111222,11111222,99999999' 
TABS,ioos:station:wmo:42045:1,2004-03-03T19:30:00Z,26.2168,-96.4998,2.0,124.3232874,23.58729319,-99999.0,'11111222,11111222,99999999' 
TABS,ioos:station:wmo:42045:1,2004-03-03T20:00:00Z,26.2168,-96.4998,2.0,124.5567251,22.00192719,-99999.0,'11111222,11111222,99999999' 
TABS,ioos:station:wmo:42045:1,2004-03-03T20:30:00Z,26.2168,-96.4998,2.0,132.016445,23.23166159,-99999.0,'11111222,11111222,99999999' 
TABS,ioos:station:wmo:42045:1,2004-03-03T21:00:00Z,26.2168,-96.4998,2.0,125.4262258,17.94169446,-99999.0,'11111222,11111222,99999999' 
TABS,ioos:station:wmo:42045:1,2004-03-03T21:30:00Z,26.2168,-96.4998,2.0,119.8514172,14.6658924,-99999.0,'11111222,11111222,99999999' 
TABS,ioos:station:wmo:42045:1,2004-03-03T22:00:00Z,26.2168,-96.4998,2.0,139.8206496,9.423714766,-99999.0,'11133222,11111222,99999999' 
TABS,ioos:station:wmo:42045:1,2004-03-03T22:30:00Z,26.2168,-96.4998,2.0,133.0190305,4.705071732,-99999.0,'11133222,11111222,99999999' 
TABS,ioos:station:wmo:42045:1,2004-03-03T23:00:00Z,26.2168,-96.4998,2.0,10.93400168,0.896270049,-99999.0,'11133222,11111222,99999999' 
TABS,ioos:station:wmo:42045:1,2004-03-03T23:30:00Z,26.2168,-96.4998,2.0,290.594463,1.762640065,-99999.0,'11133222,11111222,99999999' 
TABS,ioos:station:wmo:42045:1,2004-03-04T00:00:00Z,26.2168,-96.4998,2.0,281.5174187,3.255549109,-99999.0,'11133222,11111222,99999999' 
TABS,ioos:station:wmo:42045:1,2004-03-04T00:30:00Z,26.2168,-96.4998,2.0,300.9969643,8.971092464,-99999.0,'11133222,11111222,99999999' 
TABS,ioos:station:wmo:42045:1,2004-03-04T01:00:00Z,26.2168,-96.4998,2.0,305.1211944,9.108243519,-99999.0,'11133222,11111222,99999999' 
TABS,ioos:station:wmo:42045:1,2004-03-04T01:30:00Z,26.2168,-96.4998,2.0,313.1836481,11.82169616,-99999.0,'11111222,11111222,99999999' 
TABS,ioos:station:wmo:42045:1,2004-03-04T02:00:00Z,26.2168,-96.4998,2.0,333.9959075,12.33921391,-99999.0,'11111222,11111222,99999999' 
TABS,ioos:station:wmo:42045:1,2004-03-04T02:30:00Z,26.2168,-96.4998,2.0,329.522071,13.76154061,-99999.0,'11111222,11111222,99999999' 
TABS,ioos:station:wmo:42045:1,2004-03-04T03:00:00Z,26.2168,-96.4998,2.0,336.7966416,14.94923744,-99999.0,'11111222,11111222,99999999' 
TABS,ioos:station:wmo:42045:1,2004-03-04T03:30:00Z,26.2168,-96.4998,2.0,345.7934776,17.9283128,-99999.0,'11111222,11111222,99999999' 
TABS,ioos:station:wmo:42045:1,2004-03-04T04:00:00Z,26.2168,-96.4998,2.0,351.5208798,17.63274227,-99999.0,'11111222,11111222,99999999' 
TABS,ioos:station:wmo:42045:1,2004-03-04T04:30:00Z,26.2168,-96.4998,2.0,356.9146036,12.81858417,-99999.0,'11111222,11111222,99999999' 
TABS,ioos:station:wmo:42045:1,2004-03-04T05:00:00Z,26.2168,-96.4998,2.0,1.670676762,13.03553988,-99999.0,'11111222,11111222,99999999' 
TABS,ioos:station:wmo:42045:1,2004-03-04T05:30:00Z,26.2168,-96.4998,2.0,7.119490876,12.42579977,-99999.0,'11111222,11111222,99999999' 
TABS,ioos:station:wmo:42045:1,2004-03-04T06:00:00Z,26.2168,-96.4998,2.0,17.36965475,13.26488598,-99999.0,'11111222,11111222,99999999' 
TABS,ioos:station:wmo:42045:1,2004-03-04T06:30:00Z,26.2168,-96.4998,2.0,32.03845051,11.0653197,-99999.0,'11111222,11111222,99999999' 
TABS,ioos:station:wmo:42045:1,2004-03-04T07:00:00Z,26.2168,-96.4998,2.0,38.08240681,15.02936459,-99999.0,'11111222,11111222,99999999' 
TABS,ioos:station:wmo:42045:1,2004-03-04T07:30:00Z,26.2168,-96.4998,2.0,55.68041412,9.843749286,-99999.0,'11133222,11111222,99999999' 
TABS,ioos:station:wmo:42045:1,2004-03-04T08:00:00Z,26.2168,-96.4998,2.0,63.13814497,8.631338251,-99999.0,'11133222,11111222,99999999' 
TABS,ioos:station:wmo:42045:1,2004-03-04T08:30:00Z,26.2168,-96.4998,2.0,77.27567407,9.216344178,-99999.0,'11133222,11111222,99999999' 
TABS,ioos:station:wmo:42045:1,2004-03-04T09:00:00Z,26.2168,-96.4998,2.0,98.81980865,17.73976606,-99999.0,'11111222,11111222,99999999' 
TABS,ioos:station:wmo:42045:1,2004-03-04T09:30:00Z,26.2168,-96.4998,2.0,105.5031374,19.04286218,-99999.0,'11111222,11111222,99999999' 
TABS,ioos:station:wmo:42045:1,2004-03-04T10:00:00Z,26.2168,-96.4998,2.0,108.7785037,21.09277127,-99999.0,'11111222,11111222,99999999' 
TABS,ioos:station:wmo:42045:1,2004-03-04T10:30:00Z,26.2168,-96.4998,2.0,105.4895066,31.94008923,-99999.0,'11111222,11111222,99999999' 
TABS,ioos:station:wmo:42045:1,2004-03-04T11:00:00Z,26.2168,-96.4998,2.0,117.3521815,29.62175214,-99999.0,'11111222,11111222,99999999' 
TABS,ioos:station:wmo:42045:1,2004-03-04T11:30:00Z,26.2168,-96.4998,2.0,126.9480841,27.81602596,-99999.0,'11111222,11111222,99999999' 
TABS,ioos:station:wmo:42045:1,2004-03-04T12:00:00Z,26.2168,-96.4998,2.0,132.0010836,27.43796093,-99999.0,'11111222,11111222,99999999' 
TABS,ioos:station:wmo:42045:1,2004-03-04T12:30:00Z,26.2168,-96.4998,2.0,137.9398953,26.33195967,-99999.0,'11111222,11111222,99999999' 
TABS,ioos:station:wmo:42045:1,2004-03-04T13:00:00Z,26.2168,-96.4998,2.0,134.7261915,26.64408752,-99999.0,'11111222,11111222,99999999' 
TABS,ioos:station:wmo:42045:1,2004-03-04T13:30:00Z,26.2168,-96.4998,2.0,145.4663799,26.00161533,-99999.0,'11111222,11111222,99999999' 
TABS,ioos:station:wmo:42045:1,2004-03-04T14:00:00Z,26.2168,-96.4998,2.0,155.7006704,21.94404019,-99999.0,'11111222,11111222,99999999' 
TABS,ioos:station:wmo:42045:1,2004-03-04T14:30:00Z,26.2168,-96.4998,2.0,157.0842491,19.67256974,-99999.0,'11111222,11111222,99999999' 
TABS,ioos:station:wmo:42045:1,2004-03-04T15:00:00Z,26.2168,-96.4998,2.0,178.2808814,20.66930091,-99999.0,'11111222,11111222,99999999' 
TABS,ioos:station:wmo:42045:1,2004-03-04T15:30:00Z,26.2168,-96.4998,2.0,179.2165759,14.63136699,-99999.0,'11111222,11111222,99999999' 
TABS,ioos:station:wmo:42045:1,2004-03-04T16:00:00Z,26.2168,-96.4998,2.0,197.3815435,16.00066561,-99999.0,'11111222,11111222,99999999' 
TABS,ioos:station:wmo:42045:1,2004-03-04T16:30:00Z,26.2168,-96.4998,2.0,218.069567,10.31426197,-99999.0,'11111222,11111222,99999999' 
TABS,ioos:station:wmo:42045:1,2004-03-04T17:00:00Z,26.2168,-96.4998,2.0,277.4915459,9.511177635,-99999.0,'11133222,11111222,99999999' 
TABS,ioos:station:wmo:42045:1,2004-03-04T17:30:00Z,26.2168,-96.4998,2.0,306.4546677,10.75428287,-99999.0,'11111222,11111222,99999999' 
TABS,ioos:station:wmo:42045:1,2004-03-04T18:00:00Z,26.2168,-96.4998,2.0,316.3202583,15.34828981,-99999.0,'11111222,11111222,99999999' 
TABS,ioos:station:wmo:42045:1,2004-03-04T18:30:00Z,26.2168,-96.4998,2.0,326.2996875,15.08507209,-99999.0,'11111222,11111222,99999999' 
TABS,ioos:station:wmo:42045:1,2004-03-04T19:00:00Z,26.2168,-96.4998,2.0,339.1868371,16.15418212,-99999.0,'11111222,11111222,99999999' 
TABS,ioos:station:wmo:42045:1,2004-03-04T19:30:00Z,26.2168,-96.4998,2.0,346.3379327,20.06782499,-99999.0,'11111222,11111222,99999999' 